Regional Weather Roundup
Issued by NWS

Home | Current Version | Previous Version | Graphics & Text | Print | Product List | Glossary On
Versions: 1 2 3 4 5 6 7 8 9 10 11 12 13 14 15 16 17 18 19 20 21 22 23 24 25 26 27 28 29 30 31 32 33 34 35 36 37 38 39 40 41 42 43 44 45 46 47 48 49 50
000
ASUS43 KDTX 161110
RWRMI
MICHIGAN HOURLY REGIONAL WEATHER ROUNDUP
NATIONAL WEATHER SERVICE DETROIT/PONTIAC MI
600 AM EST MON JAN 16 2017

NOTE: "FAIR" INDICATES FEW OR NO CLOUDS BELOW 12,000 FEET WITH NO
SIGNIFICANT WEATHER AND/OR OBSTRUCTION TO VISIBILITY.

MIZ047>049-052>055-059>063-066>070-074>076-081>083-161200-
SOUTHEAST LOWER MICHIGAN

CITY           SKY/WX    TMP DP  RH WIND       PRES   REMARKS
ADRIAN         CLOUDY    24  24 100 CALM      30.32S FOG
ALMA           CLOUDY    19  17  93 CALM      30.31S FOG
ANN ARBOR      CLOUDY    19  16  88 CALM      30.32S
BAD AXE        CLOUDY    21  19  90 CALM      30.31S
CARO           CLOUDY    18  17  95 CALM      30.31S FOG
DETROIT CITY   CLOUDY    20  18  92 CALM      30.34S FOG
DETROIT        CLOUDY    22  18  85 CALM      30.34S FOG
FLINT          CLOUDY    18  17  96 CALM      30.32S FOG
GROSSE ILE       N/A     23  22  95 CALM      30.33S FOG
HILLSDALE      CLOUDY    28  23  80 SE6       30.28S FOG     WCI  22
HOWELL         CLOUDY    21  19  90 CALM      30.30S

CITY           SKY/WX    TMP DP  RH WIND       PRES   REMARKS
JACKSON        MIX PCPN  23  19  85 E3        30.30S FOG
LAMBERTVILLE   CLOUDY    27  24  89 CALM      30.32F FOG
LANSING        CLOUDY    21  18  88 SE3       30.31S FOG
LAPEER         FAIR      17  15  95 CALM      30.32S
MASON          CLOUDY    23  21  92 CALM      30.30S
MONROE         CLOUDY    24  23  96 CALM      30.33S FOG
MT. CLEMENS    CLOUDY    17  16  95 CALM      30.32S
PONTIAC        CLOUDY    18  13  80 CALM      30.30S HAZE
PORT HOPE        N/A     25  20  81 SW9       30.28S WCI  15
PORT HURON     PTCLDY    16  16 100 CALM      30.34S FOG
TRI CITIES     PTCLDY    23  21  92 SW6       30.31F FOG     WCI  16
MIDLAND        FAIR      17  13  87 CALM      30.30F
TROY           PTCLDY    21  19  89 CALM      30.34F
SAGINAW HB     CLOUDY    25  21  86 S8        30.31S WCI  16
$$
MIZ043>046-050>051-056>058-064>065-071>073-077>080-161200-
SOUTHWEST LOWER MICHIGAN

CITY           SKY/WX    TMP DP  RH WIND       PRES   REMARKS
BATTLE CREEK   CLOUDY    26  24  92 S3        30.30R
BENTON HARBOR  CLOUDY    31  24  75 E3        30.29R
BIG RAPIDS     CLOUDY    11   8  88 CALM      30.28S
COLDWATER      CLOUDY    29  26  88 CALM      30.29S
FREMONT        FAIR      21  20  98 CALM      30.28S FOG
HOLLAND        MOCLDY    24  21  88 CALM      30.30S
GRAND RAPIDS   MOCLDY    23  19  85 CALM      30.30S FOG
IONIA          FAIR      22  21  96 CALM      30.30S FOG
KALAMAZOO      CLOUDY    28  22  78 CALM      30.30S HAZE
LUDINGTON      CLOUDY    19  18  97 CALM      30.27F FOG
MARSHALL       CLOUDY    26  22  84 CALM      30.29S
MOUNT PLEASANT CLOUDY    16  13  88 CALM      30.29S
MUSKEGON       CLOUDY    23  20  88 CALM      30.30S FOG
SOUTH HAVEN    CLOUDY    27  24  89 CALM      30.30R
$$
MIZ016>042-161200-
NORTHERN LOWER MICHIGAN

CITY           SKY/WX    TMP DP  RH WIND       PRES   REMARKS
ALPENA         CLOUDY    22  16  78 SW8       30.24R WCI  12
BEAVER ISLAND  CLEAR     30  25  80 W14       30.21R WCI  20
BELLAIRE       CLOUDY    10   8  92 CALM      30.26F
CADILLAC       CLOUDY     9   6  86 CALM      30.24R
CHARLEVOIX     PTCLDY    22  22  98 CALM      30.26R FOG
FRANKFORT      CLOUDY    17  17  96 CALM      30.26S FOG
GAYLORD        CLOUDY    23  18  81 W13       30.20S WCI  11
GRAYLING       CLOUDY     1  -3  84 CALM      30.25F
HARBOR SPRINGS CLOUDY    27  25  93 SW12      30.23R WCI  17
HOUGHTON LAKE  CLOUDY     9   7  92 SW5       30.26S WCI   1
MANISTEE       CLOUDY    12   9  87 E5        30.27F WCI   4
OSCODA         MOCLDY    18  15  88 SW9       30.27S WCI   6
PELLSTON       CLOUDY    28  22  78 SW9       30.21R WCI  19
ROGERS CITY    CLOUDY    26  20  80 SW9       30.22R WCI  16
TRAVERSE CITY  CLOUDY    18  15  88 CALM      30.25S FOG
$$
MIZ007>008-015-161200-
EASTERN UPPER MICHIGAN

CITY           SKY/WX    TMP DP  RH WIND       PRES   REMARKS
KINROSS        CLEAR     27  23  85 SW10      30.16S WCI  17
MACKINAC ISLAN CLEAR     28  28 100 SW14      30.18S WCI  17
NEWBERRY       CLOUDY    20  15  80 SW13      30.15S WCI   7
S. S. MARIE    CLOUDY    24  19  81 SW6       30.15R WCI  17
$$
MIZ004>006-011>014-085-161200-
CENTRAL UPPER MICHIGAN

CITY           SKY/WX    TMP DP  RH WIND       PRES   REMARKS
MANISTIQUE     CLOUDY    20  16  82 SW7       30.19S WCI  11
ESCANABA       CLOUDY     4   2  91 CALM      30.21S
SAWYER-GWINN   CLOUDY    10   6  86 SE5       30.14S WCI   1
$$
MIZ001>003-009>011-084-161200-
WESTERN UPPER MICHIGAN

CITY           SKY/WX    TMP DP  RH WIND       PRES   REMARKS
IRON MOUNTAIN  CLOUDY    14   7  73 CALM      30.15S
HOUGHTON       CLEAR     26  17  68 W18       30.08F WCI  13
COPPER HARBOR    N/A     29  22  75 NW3       30.08S
IRONWOOD       CLOUDY    16  13  88 CALM      30.15S
$$

ABBREVIATIONS USED IN REMARKS
   TC - TEMPERATURE IN CELSIUS
  WCI - WIND CHILL INDEX
   HX - HEAT INDEX
  VSB - VISIBILITY





USA.gov is the U.S. government's official web portal to all federal, state and local government web resources and services.